Location: ???????
(54.9996°N, 37.9529°E)
Time: 06:57:28
(UTC+00:00)

SWAS - Visible Passes

Search period start: 16 July 2024 00:00
Search period end: 26 July 2024 00:00
Orbit: 558 x 571 km, 69.9° (Epoch: 15 July)

Date Brightness Start Highest point End Pass type
(mag) Time Alt. Az. Time Alt. Az. Time Alt. Az.
16 Jul 6.6 19:55:02 10° WSW 19:58:46 30° NW 20:02:31 10° NNE visible
16 Jul 7.7 21:36:19 10° NW 21:38:16 13° NNW 21:40:13 10° NNE visible
16 Jul 7.9 23:16:44 10° NNW 23:18:17 12° N 23:19:49 10° NNE visible
17 Jul 7.0 19:55:27 10° W 19:58:59 25° NW 20:02:33 10° NNE visible
17 Jul 7.9 21:36:57 10° NW 21:38:36 12° NNW 21:40:16 10° NNE visible
17 Jul 7.9 23:16:49 10° NNW 23:18:38 12° NNE 23:20:27 10° NE visible
18 Jul 7.3 19:55:55 10° W 19:59:14 22° NNW 20:02:34 10° NNE visible
18 Jul 8.0 21:37:33 10° NNW 21:38:57 11° N 21:40:22 10° NNE visible
18 Jul 7.9 23:16:51 10° NNW 23:18:57 13° NNE 23:21:04 10° NE visible
19 Jul 7.6 19:56:25 10° WNW 19:59:29 19° NNW 20:02:34 10° NNE visible
19 Jul 8.2 21:38:06 10° NNW 21:39:18 11° N 21:40:31 10° NNE visible
19 Jul 7.9 23:16:52 10° NNW 23:19:17 15° NNE 23:21:40 10° NE visible
20 Jul 7.7 19:56:57 10° WNW 19:59:45 17° NNW 20:02:34 10° NNE visible
20 Jul 8.3 21:38:32 10° NNW 21:39:39 11° N 21:40:46 10° NNE visible
20 Jul 7.8 23:16:52 10° NNW 23:19:34 16° NNE 23:22:15 10° ENE visible
21 Jul 7.9 19:57:30 10° WNW 20:00:02 15° NNW 20:02:33 10° NNE visible
21 Jul 8.3 21:38:50 10° NNW 21:39:59 11° N 21:41:08 10° NNE visible
21 Jul 7.7 23:16:51 10° NNW 23:19:50 18° NNE 23:22:47 10° ENE visible
22 Jul 7.9 19:58:05 10° NW 20:00:19 14° NNW 20:02:33 10° NNE visible
22 Jul 8.1 21:39:00 10° NNW 21:40:18 11° N 21:41:36 10° NNE visible
22 Jul 7.4 23:16:51 10° NNW 23:20:04 21° NNE 23:23:16 10° E visible
23 Jul 7.9 19:58:40 10° NW 20:00:36 13° NNW 20:02:32 10° NNE visible
23 Jul 8.0 21:39:05 10° NNW 21:40:37 12° N 21:42:09 10° NNE visible
23 Jul 7.1 23:16:49 10° NNW 23:20:17 24° NE 23:23:43 10° E visible
24 Jul 8.0 19:59:15 10° NW 20:00:54 12° NNW 20:02:33 10° NNE visible
24 Jul 7.8 21:39:07 10° NNW 21:40:55 12° NNE 21:42:44 10° NE visible
24 Jul 6.7 23:16:48 10° NNW 23:20:28 28° NE 23:24:06 10° E visible
25 Jul 7.9 19:59:48 10° NNW 20:01:12 11° N 20:02:36 10° NNE visible
25 Jul 7.7 21:39:06 10° NNW 21:41:12 13° NNE 21:43:18 10° NE visible
25 Jul 6.3 23:16:47 10° NNW 23:20:38 33° NE 23:24:26 10° ESE visible
